Flag for Germany Weather past 2 weeks in Hückelhoven, North Rhine-Westphalia, Germany

Now
54 °F

Passing clouds.


Feels Like: 53 °F
Forecast: 46 / 59 °F
Wind: 5 mph from Northwest

Location: Maastricht Airport Zuid Limburg

Current Time: Sep 22, 2014 at 12:56:38 AM

Latest Report: Sep 22, 2014 at 12:25 AM


Visibility: 5 mi

Pressure: 30.15 "Hg

Humidity: 88%

Dew point: 50 °F

Location of HückelhovenLocation

Historic Weather in Hückelhoven — Graph

°F

Hückelhoven temperature yesterday

Maximum temperature yesterday: 63 °F (at 2:25 AM)
Minimum temperature yesterday: 52 °F (at 10:55 PM)
Average temperature yesterday: 60 °F

Past Weeks' High & Low Weather Summary

 TemperatureHumidityPressure
High77 °F (Sep 17, 3:25 PM)100% (Sep 7, 1:25 AM)30.27 "Hg (Sep 7, 1:25 AM)
Low46 °F (Sep 12, 5:25 AM)50% (Sep 17, 1:55 PM)29.80 "Hg (Sep 18, 8:25 AM)
Average61 °F83%30.03 "Hg
* Reported Sep 6 11:25 PM — Sep 21 11:25 PM, Hückelhoven, Weather by CustomWeather, © 2014

Note: Actual official high and low records may vary slightly from our data, if they occured in-between our weather recording intervals... More about our weather records

Advertising

Hückelhoven weather history for previous 24 hours

 ConditionsComfort  
Time TempWeatherWind HumidityBarometerVisibility
11:25 PM
Sep 21
52 °FClear.5 mph94%30.15 "Hg4 mi
10:55 PM52 °FCool.5 mph94%30.15 "Hg5 mi
10:25 PM54 °FCool.3 mph88%30.15 "Hg6 mi
9:55 PM54 °FCool.5 mph88%30.12 "HgN/A
9:25 PM54 °FCool.5 mph82%30.12 "HgN/A
8:55 PM55 °FPassing clouds.6 mph77%30.12 "HgN/A
8:25 PM57 °FClear.6 mph77%30.12 "HgN/A
7:55 PM59 °FClear.9 mph72%30.09 "HgN/A
7:25 PM59 °FPassing clouds.8 mph72%30.09 "HgN/A
6:55 PM59 °FScattered clouds.9 mph72%30.09 "HgN/A
6:25 PM61 °FPartly sunny.7 mph68%30.07 "HgN/A
5:55 PM61 °FClear.9 mph63%30.07 "HgN/A
5:25 PM63 °FMild.8 mph64%30.07 "HgN/A
4:55 PM63 °FClear.9 mph64%30.07 "HgN/A
4:25 PM63 °FMild.8 mph68%30.07 "HgN/A
3:55 PM63 °FClear.12 mph73%30.07 "HgN/A
3:25 PM63 °FPassing clouds.8 mph77%30.07 "HgN/A
2:55 PM63 °FPassing clouds.10 mph77%30.07 "HgN/A
2:25 PM61 °FBroken clouds.8 mph88%30.07 "HgN/A
1:55 PM63 °FBroken clouds.9 mph77%30.07 "HgN/A
1:25 PM63 °FCloudy.9 mph77%30.07 "HgN/A
12:55 PM61 °FOvercast.9 mph83%30.07 "HgN/A
12:25 PM61 °FOvercast.9 mph88%30.04 "HgN/A
11:55 AM59 °FMostly cloudy.10 mph94%30.04 "HgN/A
11:25 AM59 °FLight rain. Broken clouds.10 mph94%30.04 "Hg4 mi
10:55 AM59 °FLight rain. Partly sunny.12 mph94%30.04 "Hg6 mi
10:25 AM59 °FDrizzle. Mostly cloudy.10 mph94%30.01 "Hg4 mi
9:55 AM61 °FDrizzle. Partly sunny.8 mph94%30.01 "Hg2 mi
9:25 AM61 °FDrizzle. Broken clouds.7 mph94%30.01 "Hg1 mi
8:55 AM59 °FRain. Partly sunny.7 mph100%30.01 "Hg1 mi
8:25 AM61 °FHeavy rain. Partly sunny.7 mph94%29.98 "Hg1 mi
7:55 AM61 °FFog.7 mph100%29.98 "Hg1 mi
7:25 AM61 °FLight rain. Partly cloudy.6 mph100%29.98 "Hg1 mi
6:55 AM61 °FFog.6 mph100%29.98 "Hg1 mi
6:25 AM61 °FFog.5 mph100%29.98 "Hg1 mi
5:55 AM61 °FFog.3 mph100%29.98 "Hg1 mi
5:25 AM61 °FFog.6 mph100%29.98 "Hg1 mi
4:55 AM61 °FFog.7 mph100%29.98 "Hg1 mi
4:25 AM61 °FFog.6 mph100%29.98 "Hg1 mi
3:55 AM61 °FPartly cloudy.3 mph100%29.98 "Hg1 mi
3:25 AM61 °FThunderstorms. Passing clouds.3 mph100%29.98 "Hg1 mi
2:55 AM63 °FLots of rain. Passing clouds.7 mph94%29.98 "Hg1 mi
2:25 AM63 °FFog.3 mph94%29.98 "Hg2 mi
1:55 AM61 °FFog.3 mph100%29.98 "Hg3 mi
1:25 AM61 °FFog.5 mph100%29.98 "Hg3 mi
12:55 AM61 °FMostly cloudy.6 mph100%29.98 "Hg4 mi
12:25 AM61 °FPassing clouds.8 mph100%29.98 "HgN/A
Weather by CustomWeather, © 2014

See weather overviewHow to use our weather pages